Weather in Posad

Russia / Arkhangel'skaya Oblast'     63°06′35″N   39°14′21″E
temp.,
°C
wind,
m/s
gust,
m/s
humid.,
%
clouds,
%
prec.,
mm/h
press.,
hPa
HPBL,
m
13 may, thu
thu1300:00+15ssw11640 0.0 102211
03:00+13s22700 0.0 102125
06:00+15s26610 0.0 1020151
09:00+21ssw35440 0.0 1020654
12:00+25ssw46312 0.0 10191936
15:00+26ssw453292 0.0 10172880
18:00+23s364391 0.0 1016747
21:00+18sse37605 0.1 1016162
14 may, fri
fri1400:00+15sse24805 0.5 101561
03:00+13sse239118 1.4 101459
06:00+15sse3784100 0.1 1013277
09:00+16ssw3578100 0.6 1013383
12:00+19sw5764100 0.3 10131221
15:00+21wsw47414 0.4 10132096
18:00+21sw363870 0.0 10122461
21:00+15wsw226161 0.0 101414
15 may, sat
sat1500:00+12ssw226794 0.0 101413
03:00+12ssw117012 0.0 101410
06:00+13se1270100 0.0 101393
09:00+18sse2353100 0.0 1012537
12:00+15se3576100 0.6 1012435
15:00+14e278797 1.1 1010318
18:00+17ene3478100 0.4 1007487
21:00+14ne2797100 8.4 1005233
16 may, sun
sun1600:00+13ene0099100 6.8 100318
03:00+13se2499100 10.6 1002195
06:00+13s3898100 1.5 1001424
09:00+14w4791100 2.3 1003712
12:00+14wsw3892100 0.4 1006683
15:00+13w4989100 0.6 1009832
18:00+13wnw498337 0.1 1010778
21:00+10nnw22965 0.1 101256
17 may, mon
mon1700:00+7nnw239875 0.0 101372
03:00+8n139485 0.0 1015144
06:00+9wnw01865 0.0 1016140
09:00+16ssw126257 0.0 1017684
12:00+18sw244870 0.1 10171926
15:00+19s244424 0.1 10171700
18:00+20sw244465 0.0 10171364
21:00+15sw11644 0.0 101710